Regional Weather Roundup
Issued by NWS

Home | Current Version | Previous Version | Text Only | Print | Product List | Glossary Off
Versions: 1 2 3 4 5 6 7 8 9 10 11 12 13 14 15 16 17 18 19 20 21 22 23 24 25 26 27 28 29 30 31 32 33 34 35 36 37 38 39 40 41 42 43 44 45 46 47 48 49 50

000
ASUS43 KBIS 300910
RWRND

NORTH DAKOTA REGIONAL WEATHER ROUNDUP
NATIONAL WEATHER SERVICE BISMARCK ND
400 AM CDT THU JUL 30 2015

NOTE: "FAIR" INDICATES FEW OR NO CLOUDS BELOW 12,000 FEET WITH NO
SIGNIFICANT WEATHER AND/OR OBSTRUCTIONS TO VISIBILITY.


NDZ001>003-009>011-017-301000-
NORTHWEST NORTH DAKOTA

CITY           SKY/WX    TMP DP  RH WIND       PRES   REMARKS
WILLISTON      PTCLDY    57  52  83 N6        30.14R
MINOT          PTCLDY    63  51  65 W14       30.07R
MINOT AFB      PTCLDY    61  57  85 W12       30.05S
$$

NDZ018>021-031>035-040>046-301000-
SOUTHWEST NORTH DAKOTA

CITY           SKY/WX    TMP DP  RH WIND       PRES   REMARKS
BISMARCK       CLEAR     57  50  77 CALM      30.11R
DICKINSON      CLEAR     51  45  79 S3        30.14R
GARRISON         N/A     56  51  84 CALM      30.08S
HETTINGER ARPT CLEAR     46  42  86 CALM      30.19R
$$

NDZ004>008-012>016-024-026-027-054-301000-
NORTHEAST NORTH DAKOTA

CITY           SKY/WX    TMP DP  RH WIND       PRES   REMARKS
GRAND FORKS    CLEAR     63  57  81 W9        29.94R
GRND FRKS AFB  CLEAR     63  57  79 W9        29.95S
DEVILS LAKE    CLEAR     63  52  67 W12       30.00R
$$

NDZ022-023-025-028>030-036>039-047>053-301000-
SOUTHEAST NORTH DAKOTA

CITY           SKY/WX    TMP DP  RH WIND       PRES   REMARKS
FARGO          CLEAR     61  55  81 W8        29.98R
JAMESTOWN      CLEAR     60  53  77 W7        30.05R
$$



USA.gov is the U.S. government's official web portal to all federal, state and local government web resources and services.